STARLINK-36688, 67656

Orbit data source: Space-Track

STARLINK-36688, 67656 is a payload satellite owned by SpaceX/Seattle (US) in SSO that was launched on Mon, 02 Feb 2026 UTC via an FALCON 9 launch vehicle from the Air Force Western Test Range (AFWTR). Payload-class satellites include a variety of spacecraft equipped with specific instruments for various scientific and technological missions. These include communications satellites like Starlink; space stations such as the ISS; scientific satellites like the Hubble; Earth observation satellites from companies like Planet Labs, Umbra, and HawkEye 360; GPS; miniature CubeSats for education and research; and military/defense satellites.

Loading next visibility...
Identifier
67656, 2026-022J
Orbit
SSO
Country
Flag of USUS
Related business
Manufacturer
SpaceX/Seattle
Mission
Operational Commercial Communications
Bus & Motor
STARLINK V2MO, Unknown motor
Mass
575 kg wet, ~530 kg dry
Launch date (UTC)
2026-02-02 (5 months ago)
Launch vehicle
FALCON 9
Launch site
Air Force Western Test Range (AFWTR)
Object type
Payload
Rocket body
Debris
Shape & HBR
Box + 2 Pan, 17.7 m
Radar Cross Section
36.964 m², Large (>1 m²)

Expand to show TLE details & history
Last TLE update: 1 day ago

TLE from 1 day ago
0 STARLINK-36688
1 67656U 26022J   26170.65921716  .00015824  00000-0  49130-3 0  9995
2 67656  97.2835 203.6128 0000308  91.6495 268.4783 15.33454305 21209
Epoch: 2026-06-19T15:49Z
TLE epoch observation values (Epoch: 2026-06-19T15:49:16.362Z)
Latitude
-0.00004°
Longitude
58.40961°
Altitude
468.633 km
Speed
7.632 km/s
True Right ascension
13h 34m 27s
True Declination
0° 00' 00"
Sunlit
Object was in full shadow at epoch
Visualization orbit readout
Latitude
Unknown
Longitude
Unknown
Altitude
Unknown
Speed
Unknown
Apparent Right ascension
Unknown
Apparent Declination
Unknown
Sunlit
N/A
Visualization observer readout
Local Sidereal Time
10:18:07
Azimuth
Unknown
Elevation
Unknown
Doppler factor
Unknown
Orbital elements
Apogee altitude
462.669 km
Perigee altitude
462.247 km
Semi-major axis
6,840.595 km
Eccentricity
0.00003
Inclination
97.2835°
RAAN
203.6128°
Arg. of periapsis
91.6495°
True anomaly
268.47477°
Mean anomaly
268.4783°
Eccentric anomaly
268.47654°
Mean motion
3.83621 °/min
Orbital period
93.84 mins
BSTAR
0.0004913
Loading maneuver chart data...
Computing Atmospheric mass density...
Loading historical data...
Loading historical data...
Loading historical data...
Loading historical data...
Loading historical data...
Loading historical data...
Loading historical data...

Documentation

Showing up to 5 results
|